Year,Month,Day,Hour,Minute,Value (Times are PST for temperature in C)
2013,11,23,00,00,3.60
2013,11,23,00,01,3.60
2013,11,23,00,02,3.60
2013,11,23,00,03,3.60
2013,11,23,00,04,3.60
2013,11,23,00,05,3.60
2013,11,23,00,06,3.60
2013,11,23,00,07,3.70
2013,11,23,00,08,3.70
2013,11,23,00,09,3.80
2013,11,23,00,10,3.80
2013,11,23,00,11,3.80
2013,11,23,00,12,3.90
2013,11,23,00,13,3.90
2013,11,23,00,14,3.90
2013,11,23,00,15,3.90
2013,11,23,00,16,3.90
2013,11,23,00,17,3.90
2013,11,23,00,18,3.90
2013,11,23,00,19,3.90
2013,11,23,00,20,3.90
2013,11,23,00,21,3.80
2013,11,23,00,22,3.80
2013,11,23,00,23,3.80
2013,11,23,00,24,3.70
2013,11,23,00,25,3.70
2013,11,23,00,26,3.70
2013,11,23,00,27,3.60
2013,11,23,00,28,3.60
2013,11,23,00,29,3.50
2013,11,23,00,30,3.50
2013,11,23,00,31,3.40
2013,11,23,00,32,3.40
2013,11,23,00,33,3.30
2013,11,23,00,34,3.30
2013,11,23,00,35,3.30
2013,11,23,00,36,3.30
2013,11,23,00,37,3.20
2013,11,23,00,38,3.20
2013,11,23,00,39,3.20
2013,11,23,00,40,3.20
2013,11,23,00,41,3.20
2013,11,23,00,42,3.20
2013,11,23,00,43,3.20
2013,11,23,00,44,3.20
2013,11,23,00,45,3.10
2013,11,23,00,46,3.10
2013,11,23,00,47,3.10
2013,11,23,00,48,3.10
2013,11,23,00,49,3.00
2013,11,23,00,50,3.00
2013,11,23,00,51,3.00
2013,11,23,00,52,2.90
2013,11,23,00,53,2.90
2013,11,23,00,54,2.90
2013,11,23,00,55,2.80
2013,11,23,00,56,2.80
2013,11,23,00,57,2.80
2013,11,23,00,58,2.70
2013,11,23,00,59,2.70
2013,11,23,01,00,2.70
2013,11,23,01,01,2.60
2013,11,23,01,02,2.60
2013,11,23,01,03,2.50
2013,11,23,01,04,2.50
2013,11,23,01,05,2.40
2013,11,23,01,06,2.40
2013,11,23,01,07,2.40
2013,11,23,01,08,2.30
2013,11,23,01,09,2.30
2013,11,23,01,10,2.30
2013,11,23,01,11,2.20
2013,11,23,01,12,2.20
2013,11,23,01,13,2.20
2013,11,23,01,14,2.20
2013,11,23,01,15,2.10
2013,11,23,01,16,2.10
2013,11,23,01,17,2.10
2013,11,23,01,18,2.00
2013,11,23,01,19,2.00
2013,11,23,01,20,1.90
2013,11,23,01,21,1.90
2013,11,23,01,22,1.80
2013,11,23,01,23,1.80
2013,11,23,01,24,1.70
2013,11,23,01,25,1.70
2013,11,23,01,26,1.60
2013,11,23,01,27,1.60
2013,11,23,01,28,1.50
2013,11,23,01,29,1.50
2013,11,23,01,30,1.50
2013,11,23,01,31,1.50
2013,11,23,01,32,1.40
2013,11,23,01,33,1.40
2013,11,23,01,34,1.30
2013,11,23,01,35,1.30
2013,11,23,01,36,1.20
2013,11,23,01,37,1.20
2013,11,23,01,38,1.10
2013,11,23,01,39,1.10
2013,11,23,01,40,1.00
2013,11,23,01,41,1.00
2013,11,23,01,42,1.00
2013,11,23,01,43,0.90
2013,11,23,01,44,0.90
2013,11,23,01,45,0.90
2013,11,23,01,46,0.90
2013,11,23,01,47,0.90
2013,11,23,01,48,1.00
2013,11,23,01,49,1.00
2013,11,23,01,50,1.10
2013,11,23,01,51,1.20
2013,11,23,01,52,1.20
2013,11,23,01,53,1.40
2013,11,23,01,54,1.40
2013,11,23,01,55,1.50
2013,11,23,01,56,1.60
2013,11,23,01,57,1.70
2013,11,23,01,58,1.80
2013,11,23,01,59,1.90
2013,11,23,02,00,1.90
2013,11,23,02,01,2.00
2013,11,23,02,02,2.00
2013,11,23,02,03,2.10
2013,11,23,02,04,2.20
2013,11,23,02,05,2.20
2013,11,23,02,06,2.30
2013,11,23,02,07,2.30
2013,11,23,02,08,2.30
2013,11,23,02,09,2.30
2013,11,23,02,10,2.30
2013,11,23,02,11,2.30
2013,11,23,02,12,2.30
2013,11,23,02,13,2.30
2013,11,23,02,14,2.20
2013,11,23,02,15,2.20
2013,11,23,02,16,2.20
2013,11,23,02,17,2.10
2013,11,23,02,18,2.00
2013,11,23,02,19,2.00
2013,11,23,02,20,1.90
2013,11,23,02,21,1.90
2013,11,23,02,22,1.90
2013,11,23,02,23,1.90
2013,11,23,02,24,1.90
2013,11,23,02,25,1.90
2013,11,23,02,26,1.90
2013,11,23,02,27,1.90
2013,11,23,02,28,1.90
2013,11,23,02,29,1.90
2013,11,23,02,30,1.90
2013,11,23,02,31,2.00
2013,11,23,02,32,2.00
2013,11,23,02,33,2.10
2013,11,23,02,34,2.10
2013,11,23,02,35,2.20
2013,11,23,02,36,2.30
2013,11,23,02,37,2.30
2013,11,23,02,38,2.40
2013,11,23,02,39,2.50
2013,11,23,02,40,2.50
2013,11,23,02,41,2.60
2013,11,23,02,42,2.60
2013,11,23,02,43,2.60
2013,11,23,02,44,2.70
2013,11,23,02,45,2.70
2013,11,23,02,46,2.70
2013,11,23,02,47,2.70
2013,11,23,02,48,2.70
2013,11,23,02,49,2.70
2013,11,23,02,50,2.70
2013,11,23,02,51,2.70
2013,11,23,02,52,2.60
2013,11,23,02,53,2.60
2013,11,23,02,54,2.60
2013,11,23,02,55,2.60
2013,11,23,02,56,2.60
2013,11,23,02,57,2.50
2013,11,23,02,58,2.50
2013,11,23,02,59,2.40
2013,11,23,03,00,2.40
2013,11,23,03,01,2.40
2013,11,23,03,02,2.40
2013,11,23,03,03,2.40
2013,11,23,03,04,2.40
2013,11,23,03,05,2.40
2013,11,23,03,06,2.40
2013,11,23,03,07,2.40
2013,11,23,03,08,2.30
2013,11,23,03,09,2.30
2013,11,23,03,10,2.30
2013,11,23,03,11,2.30
2013,11,23,03,12,2.30
2013,11,23,03,13,2.40
2013,11,23,03,14,2.40
2013,11,23,03,15,2.40
2013,11,23,03,16,2.40
2013,11,23,03,17,2.40
2013,11,23,03,18,2.50
2013,11,23,03,19,2.50
2013,11,23,03,20,2.50
2013,11,23,03,21,2.60
2013,11,23,03,22,2.60
2013,11,23,03,23,2.60
2013,11,23,03,24,2.70
2013,11,23,03,25,2.70
2013,11,23,03,26,2.70
2013,11,23,03,27,2.70
2013,11,23,03,28,2.70
2013,11,23,03,29,2.80
2013,11,23,03,30,2.80
2013,11,23,03,31,2.80
2013,11,23,03,32,2.80
2013,11,23,03,33,2.70
2013,11,23,03,34,2.70
2013,11,23,03,35,2.70
2013,11,23,03,36,2.70
2013,11,23,03,37,2.70
2013,11,23,03,38,2.70
2013,11,23,03,39,2.60
2013,11,23,03,40,2.50
2013,11,23,03,41,2.40
2013,11,23,03,42,2.30
2013,11,23,03,43,2.20
2013,11,23,03,44,2.10
2013,11,23,03,45,2.10
2013,11,23,03,46,2.00
2013,11,23,03,47,1.90
2013,11,23,03,48,1.90
2013,11,23,03,49,1.90
2013,11,23,03,50,2.00
2013,11,23,03,51,2.00
2013,11,23,03,52,2.00
2013,11,23,03,53,2.00
2013,11,23,03,54,2.00
2013,11,23,03,55,2.00
2013,11,23,03,56,2.00
2013,11,23,03,57,2.00
2013,11,23,03,58,2.00
2013,11,23,03,59,2.00
2013,11,23,04,00,1.90
2013,11,23,04,01,1.90
2013,11,23,04,02,1.80
2013,11,23,04,03,1.80
2013,11,23,04,04,1.80
2013,11,23,04,05,1.70
2013,11,23,04,06,1.60
2013,11,23,04,07,1.50
2013,11,23,04,08,1.30
2013,11,23,04,09,1.30
2013,11,23,04,10,1.20
2013,11,23,04,11,1.10
2013,11,23,04,12,1.10
2013,11,23,04,13,1.00
2013,11,23,04,14,1.00
2013,11,23,04,15,0.90
2013,11,23,04,16,0.90
2013,11,23,04,17,0.90
2013,11,23,04,18,0.90
2013,11,23,04,19,1.00
2013,11,23,04,20,1.00
2013,11,23,04,21,1.00
2013,11,23,04,22,1.00
2013,11,23,04,23,1.10
2013,11,23,04,24,1.10
2013,11,23,04,25,1.10
2013,11,23,04,26,1.20
2013,11,23,04,27,1.30
2013,11,23,04,28,1.30
2013,11,23,04,29,1.40
2013,11,23,04,30,1.50
2013,11,23,04,31,1.60
2013,11,23,04,32,1.60
2013,11,23,04,33,1.70
2013,11,23,04,34,1.80
2013,11,23,04,35,1.80
2013,11,23,04,36,1.90
2013,11,23,04,37,1.90
2013,11,23,04,38,1.90
2013,11,23,04,39,2.00
2013,11,23,04,40,2.10
2013,11,23,04,41,2.10
2013,11,23,04,42,2.10
2013,11,23,04,43,2.20
2013,11,23,04,44,2.20
2013,11,23,04,45,2.20
2013,11,23,04,46,2.30
2013,11,23,04,47,2.30
2013,11,23,04,48,2.40
2013,11,23,04,49,2.40
2013,11,23,04,50,2.50
2013,11,23,04,51,2.60
2013,11,23,04,52,2.60
2013,11,23,04,53,2.70
2013,11,23,04,54,2.70
2013,11,23,04,55,2.70
2013,11,23,04,56,2.80
2013,11,23,04,57,2.80
2013,11,23,04,58,2.80
2013,11,23,04,59,2.80
2013,11,23,05,00,2.90
2013,11,23,05,01,2.90
2013,11,23,05,02,2.90
2013,11,23,05,03,2.90
2013,11,23,05,04,3.00
2013,11,23,05,05,3.00
2013,11,23,05,06,3.10
2013,11,23,05,07,3.10
2013,11,23,05,08,3.10
2013,11,23,05,09,3.10
2013,11,23,05,10,3.20
2013,11,23,05,11,3.20
2013,11,23,05,12,3.20
2013,11,23,05,13,3.20
2013,11,23,05,14,3.20
2013,11,23,05,15,3.10
2013,11,23,05,16,3.10
2013,11,23,05,17,3.00
2013,11,23,05,18,3.00
2013,11,23,05,19,2.90
2013,11,23,05,20,2.90
2013,11,23,05,21,2.80
2013,11,23,05,22,2.80
2013,11,23,05,23,2.70
2013,11,23,05,24,2.70
2013,11,23,05,25,2.60
2013,11,23,05,26,2.50
2013,11,23,05,27,2.50
2013,11,23,05,28,2.40
2013,11,23,05,29,2.30
2013,11,23,05,30,2.30
2013,11,23,05,31,2.30
2013,11,23,05,32,2.30
2013,11,23,05,33,2.30
2013,11,23,05,34,2.20
2013,11,23,05,35,2.20
2013,11,23,05,36,2.20
2013,11,23,05,37,2.20
2013,11,23,05,38,2.20
2013,11,23,05,39,2.20
2013,11,23,05,40,2.20
2013,11,23,05,41,2.20
2013,11,23,05,42,2.20
2013,11,23,05,43,2.20
2013,11,23,05,44,2.20
2013,11,23,05,45,2.30
2013,11,23,05,46,2.30
2013,11,23,05,47,2.30
2013,11,23,05,48,2.40
2013,11,23,05,49,2.40
2013,11,23,05,50,2.50
2013,11,23,05,51,2.50
2013,11,23,05,52,2.60
2013,11,23,05,53,2.60
2013,11,23,05,54,2.60
2013,11,23,05,55,2.70
2013,11,23,05,56,2.70
2013,11,23,05,57,2.70
2013,11,23,05,58,2.80
2013,11,23,05,59,2.80
2013,11,23,06,00,2.80
2013,11,23,06,01,2.80
2013,11,23,06,02,2.80
2013,11,23,06,03,2.90
2013,11,23,06,04,2.90
2013,11,23,06,05,2.90
2013,11,23,06,06,2.90
2013,11,23,06,07,2.90
2013,11,23,06,08,2.90
2013,11,23,06,09,2.90
2013,11,23,06,10,2.90
2013,11,23,06,11,2.90
2013,11,23,06,12,2.90
2013,11,23,06,13,2.80
2013,11,23,06,14,2.80
2013,11,23,06,15,2.80
2013,11,23,06,16,2.80
2013,11,23,06,17,2.80
2013,11,23,06,18,2.80
2013,11,23,06,19,2.80
2013,11,23,06,20,2.80
2013,11,23,06,21,2.80
2013,11,23,06,22,2.80
2013,11,23,06,23,2.80
2013,11,23,06,24,2.80
2013,11,23,06,25,2.80
2013,11,23,06,26,2.80
2013,11,23,06,27,2.80
2013,11,23,06,28,2.80
2013,11,23,06,29,2.80
2013,11,23,06,30,2.80
2013,11,23,06,31,2.80
2013,11,23,06,32,2.80
2013,11,23,06,33,2.70
2013,11,23,06,34,2.70
2013,11,23,06,35,2.60
2013,11,23,06,36,2.60
2013,11,23,06,37,2.50
2013,11,23,06,38,2.50
2013,11,23,06,39,2.40
2013,11,23,06,40,2.40
2013,11,23,06,41,2.30
2013,11,23,06,42,2.30
2013,11,23,06,43,2.30
2013,11,23,06,44,2.30
2013,11,23,06,45,2.30
2013,11,23,06,46,2.30
2013,11,23,06,47,2.30
2013,11,23,06,48,2.30
2013,11,23,06,49,2.30
2013,11,23,06,50,2.40
2013,11,23,06,51,2.40
2013,11,23,06,52,2.40
2013,11,23,06,53,2.40
2013,11,23,06,54,2.50
2013,11,23,06,55,2.50
2013,11,23,06,56,2.50
2013,11,23,06,57,2.50
2013,11,23,06,58,2.60
2013,11,23,06,59,2.60
2013,11,23,07,00,2.70
2013,11,23,07,01,2.70
2013,11,23,07,02,2.70
2013,11,23,07,03,2.70
2013,11,23,07,04,2.80
2013,11,23,07,05,2.80
2013,11,23,07,06,2.80
2013,11,23,07,07,2.80
2013,11,23,07,08,2.80
2013,11,23,07,09,2.80
2013,11,23,07,10,2.70
2013,11,23,07,11,2.70
2013,11,23,07,12,2.70
2013,11,23,07,13,2.70
2013,11,23,07,14,2.70
2013,11,23,07,15,2.70
2013,11,23,07,16,2.70
2013,11,23,07,17,2.70
2013,11,23,07,18,2.60
2013,11,23,07,19,2.60
2013,11,23,07,20,2.60
2013,11,23,07,21,2.60
2013,11,23,07,22,2.60
2013,11,23,07,23,2.60
2013,11,23,07,24,2.50
2013,11,23,07,25,2.50
2013,11,23,07,26,2.50
2013,11,23,07,27,2.50
2013,11,23,07,28,2.50
2013,11,23,07,29,2.50
2013,11,23,07,30,2.40
2013,11,23,07,31,2.40
2013,11,23,07,32,2.50
2013,11,23,07,33,2.50
2013,11,23,07,34,2.50
2013,11,23,07,35,2.50
2013,11,23,07,36,2.50
2013,11,23,07,37,2.50
2013,11,23,07,38,2.60
2013,11,23,07,39,2.60
2013,11,23,07,40,2.60
2013,11,23,07,41,2.60
2013,11,23,07,42,2.60
2013,11,23,07,43,2.60
2013,11,23,07,44,2.60
2013,11,23,07,45,2.60
2013,11,23,07,46,2.60
2013,11,23,07,47,2.60
2013,11,23,07,48,2.60
2013,11,23,07,49,2.60
2013,11,23,07,50,2.60
2013,11,23,07,51,2.60
2013,11,23,07,52,2.60
2013,11,23,07,53,2.60
2013,11,23,07,54,2.70
2013,11,23,07,55,2.70
2013,11,23,07,56,2.60
2013,11,23,07,57,2.60
2013,11,23,07,58,2.60
2013,11,23,07,59,2.60
2013,11,23,08,00,2.60
2013,11,23,08,01,2.50
2013,11,23,08,02,2.40
2013,11,23,08,03,2.40
2013,11,23,08,04,2.40
2013,11,23,08,05,2.30
2013,11,23,08,06,2.30
2013,11,23,08,07,2.20
2013,11,23,08,08,2.20
2013,11,23,08,09,2.10
2013,11,23,08,10,2.00
2013,11,23,08,11,1.80
2013,11,23,08,12,1.70
2013,11,23,08,13,1.60
2013,11,23,08,14,1.60
2013,11,23,08,15,1.50
2013,11,23,08,16,1.50
2013,11,23,08,17,1.40
2013,11,23,08,18,1.40
2013,11,23,08,19,1.40
2013,11,23,08,20,1.40
2013,11,23,08,21,1.40
2013,11,23,08,22,1.40
2013,11,23,08,23,1.40
2013,11,23,08,24,1.50
2013,11,23,08,25,1.50
2013,11,23,08,26,1.60
2013,11,23,08,27,1.70
2013,11,23,08,28,1.80
2013,11,23,08,29,1.90
2013,11,23,08,30,2.00
2013,11,23,08,31,2.00
2013,11,23,08,32,2.10
2013,11,23,08,33,2.20
2013,11,23,08,34,2.30
2013,11,23,08,35,2.30
2013,11,23,08,36,2.40
2013,11,23,08,37,2.40
2013,11,23,08,38,2.50
2013,11,23,08,39,2.50
2013,11,23,08,40,2.60
2013,11,23,08,41,2.60
2013,11,23,08,42,2.60
2013,11,23,08,43,2.60
2013,11,23,08,44,2.60
2013,11,23,08,45,2.60
2013,11,23,08,46,2.60
2013,11,23,08,47,2.60
2013,11,23,08,48,2.60
2013,11,23,08,49,2.60
2013,11,23,08,50,2.60
2013,11,23,08,51,2.60
2013,11,23,08,52,2.60
2013,11,23,08,53,2.60
2013,11,23,08,54,2.60
2013,11,23,08,55,2.60
2013,11,23,08,56,2.60
2013,11,23,08,57,2.60
2013,11,23,08,58,2.60
2013,11,23,08,59,2.60
2013,11,23,09,00,2.60
2013,11,23,09,01,2.60
2013,11,23,09,02,2.60
2013,11,23,09,03,2.50
2013,11,23,09,04,2.50
2013,11,23,09,05,2.50
2013,11,23,09,06,2.50
2013,11,23,09,07,2.50
2013,11,23,09,08,2.50
2013,11,23,09,09,2.50
2013,11,23,09,10,2.60
2013,11,23,09,11,2.60
2013,11,23,09,12,2.60
2013,11,23,09,13,2.60
2013,11,23,09,14,2.60
2013,11,23,09,15,2.70
2013,11,23,09,16,2.70
2013,11,23,09,17,2.70
2013,11,23,09,18,2.80
2013,11,23,09,19,2.80
2013,11,23,09,20,2.80
2013,11,23,09,21,2.80
2013,11,23,09,22,2.80
2013,11,23,09,23,2.80
2013,11,23,09,24,2.90
2013,11,23,09,25,2.90
2013,11,23,09,26,2.90
2013,11,23,09,27,2.90
2013,11,23,09,28,2.90
2013,11,23,09,29,3.00
2013,11,23,09,30,3.00
2013,11,23,09,31,3.10
2013,11,23,09,32,3.10
2013,11,23,09,33,3.10
2013,11,23,09,34,3.20
2013,11,23,09,35,3.20
2013,11,23,09,36,3.20
2013,11,23,09,37,3.30
2013,11,23,09,38,3.30
2013,11,23,09,39,3.40
2013,11,23,09,40,3.40
2013,11,23,09,41,3.50
2013,11,23,09,42,3.50
2013,11,23,09,43,3.50
2013,11,23,09,44,3.60
2013,11,23,09,45,3.60
2013,11,23,09,46,3.60
2013,11,23,09,47,3.70
2013,11,23,09,48,3.70
2013,11,23,09,49,3.70
2013,11,23,09,50,3.80
2013,11,23,09,51,3.80
2013,11,23,09,52,3.80
2013,11,23,09,53,3.80
2013,11,23,09,54,3.90
2013,11,23,09,55,4.00
2013,11,23,09,56,4.00
2013,11,23,09,57,4.10
2013,11,23,09,58,4.10
2013,11,23,09,59,4.10
2013,11,23,10,00,4.20
2013,11,23,10,01,4.20
2013,11,23,10,02,4.20
2013,11,23,10,03,4.20
2013,11,23,10,04,4.30
2013,11,23,10,05,4.30
2013,11,23,10,06,4.30
2013,11,23,10,07,4.40
2013,11,23,10,08,4.40
2013,11,23,10,09,4.40
2013,11,23,10,10,4.50
2013,11,23,10,11,4.50
2013,11,23,10,12,4.60
2013,11,23,10,13,4.60
2013,11,23,10,14,4.60
2013,11,23,10,15,4.70
2013,11,23,10,16,4.80
2013,11,23,10,17,4.80
2013,11,23,10,18,4.90
2013,11,23,10,19,5.00
2013,11,23,10,20,5.00
2013,11,23,10,21,5.10
2013,11,23,10,22,5.10
2013,11,23,10,23,5.20
2013,11,23,10,24,5.20
2013,11,23,10,25,5.20
2013,11,23,10,26,5.30
2013,11,23,10,27,5.30
2013,11,23,10,28,5.30
2013,11,23,10,29,5.30
2013,11,23,10,30,5.40
2013,11,23,10,31,5.40
2013,11,23,10,32,5.50
2013,11,23,10,33,5.50
2013,11,23,10,34,5.60
2013,11,23,10,35,5.60
2013,11,23,10,36,5.70
2013,11,23,10,37,5.80
2013,11,23,10,38,5.80
2013,11,23,10,39,5.90
2013,11,23,10,40,6.00
2013,11,23,10,41,6.00
2013,11,23,10,42,6.10
2013,11,23,10,43,6.10
2013,11,23,10,44,6.20
2013,11,23,10,45,6.20
2013,11,23,10,46,6.30
2013,11,23,10,47,6.30
2013,11,23,10,48,6.30
2013,11,23,10,49,6.30
2013,11,23,10,50,6.40
2013,11,23,10,51,6.40
2013,11,23,10,52,6.40
2013,11,23,10,53,6.50
2013,11,23,10,54,6.50
2013,11,23,10,55,6.50
2013,11,23,10,56,6.60
2013,11,23,10,57,6.60
2013,11,23,10,58,6.60
2013,11,23,10,59,6.60
2013,11,23,11,00,6.70
2013,11,23,11,01,6.70
2013,11,23,11,02,6.70
2013,11,23,11,03,6.70
2013,11,23,11,04,6.70
2013,11,23,11,05,6.70
2013,11,23,11,06,6.70
2013,11,23,11,07,6.70
2013,11,23,11,08,6.70
2013,11,23,11,09,6.70
2013,11,23,11,10,6.70
2013,11,23,11,11,6.70
2013,11,23,11,12,6.70
2013,11,23,11,13,6.70
2013,11,23,11,14,6.70
2013,11,23,11,15,6.70
2013,11,23,11,16,6.70
2013,11,23,11,17,6.70
2013,11,23,11,18,6.70
2013,11,23,11,19,6.70
2013,11,23,11,20,6.70
2013,11,23,11,21,6.70
2013,11,23,11,22,6.70
2013,11,23,11,23,6.70
2013,11,23,11,24,6.70
2013,11,23,11,25,6.70
2013,11,23,11,26,6.60
2013,11,23,11,27,6.60
2013,11,23,11,28,6.60
2013,11,23,11,29,6.60
2013,11,23,11,30,6.60
2013,11,23,11,31,6.60
2013,11,23,11,32,6.60
2013,11,23,11,33,6.60
2013,11,23,11,34,6.60
2013,11,23,11,35,6.60
2013,11,23,11,36,6.60
2013,11,23,11,37,6.60
2013,11,23,11,38,6.60
2013,11,23,11,39,6.60
2013,11,23,11,40,6.60
2013,11,23,11,41,6.60
2013,11,23,11,42,6.60
2013,11,23,11,43,6.60
2013,11,23,11,44,6.60
2013,11,23,11,45,6.60
2013,11,23,11,46,6.60
2013,11,23,11,47,6.60
2013,11,23,11,48,6.60
2013,11,23,11,49,6.60
2013,11,23,11,50,6.70
2013,11,23,11,51,6.70
2013,11,23,11,52,6.70
2013,11,23,11,53,6.70
2013,11,23,11,54,6.70
2013,11,23,11,55,6.80
2013,11,23,11,56,6.80
2013,11,23,11,57,6.80
2013,11,23,11,58,6.80
2013,11,23,11,59,6.80
2013,11,23,12,00,6.90
2013,11,23,12,01,6.90
2013,11,23,12,02,6.90
2013,11,23,12,03,6.90
2013,11,23,12,04,6.90
2013,11,23,12,05,7.00
2013,11,23,12,06,7.00
2013,11,23,12,07,7.00
2013,11,23,12,08,7.00
2013,11,23,12,09,7.00
2013,11,23,12,10,7.10
2013,11,23,12,11,7.10
2013,11,23,12,12,7.10
2013,11,23,12,13,7.10
2013,11,23,12,14,7.10
2013,11,23,12,15,7.10
2013,11,23,12,16,7.10
2013,11,23,12,17,7.20
2013,11,23,12,18,7.20
2013,11,23,12,19,7.20
2013,11,23,12,20,7.20
2013,11,23,12,21,7.20
2013,11,23,12,22,7.30
2013,11,23,12,23,7.30
2013,11,23,12,24,7.30
2013,11,23,12,25,7.30
2013,11,23,12,26,7.30
2013,11,23,12,27,7.40
2013,11,23,12,28,7.40
2013,11,23,12,29,7.40
2013,11,23,12,30,7.40
2013,11,23,12,31,7.40
2013,11,23,12,32,7.50
2013,11,23,12,33,7.50
2013,11,23,12,34,7.50
2013,11,23,12,35,7.50
2013,11,23,12,36,7.60
2013,11,23,12,37,7.60
2013,11,23,12,38,7.60
2013,11,23,12,39,7.60
2013,11,23,12,40,7.60
2013,11,23,12,41,7.60
2013,11,23,12,42,7.60
2013,11,23,12,43,7.70
2013,11,23,12,44,7.70
2013,11,23,12,45,7.70
2013,11,23,12,46,7.70
2013,11,23,12,47,7.70
2013,11,23,12,48,7.70
2013,11,23,12,49,7.70
2013,11,23,12,50,7.70
2013,11,23,12,51,7.70
2013,11,23,12,52,7.70
2013,11,23,12,53,7.70
2013,11,23,12,54,7.70
2013,11,23,12,55,7.70
2013,11,23,12,56,7.70
2013,11,23,12,57,7.70
2013,11,23,12,58,7.70
2013,11,23,12,59,7.70
2013,11,23,13,00,7.70
2013,11,23,13,01,7.70
2013,11,23,13,02,7.70
2013,11,23,13,03,7.70
2013,11,23,13,04,7.70
2013,11,23,13,05,7.60
2013,11,23,13,06,7.60
2013,11,23,13,07,7.60
2013,11,23,13,08,7.60
2013,11,23,13,09,7.60
2013,11,23,13,10,7.60
2013,11,23,13,11,7.60
2013,11,23,13,12,7.60
2013,11,23,13,13,7.60
2013,11,23,13,14,7.60
2013,11,23,13,15,7.60
2013,11,23,13,16,7.60
2013,11,23,13,17,7.60
2013,11,23,13,18,7.60
2013,11,23,13,19,7.60
2013,11,23,13,20,7.60
2013,11,23,13,21,7.60
2013,11,23,13,22,7.60
2013,11,23,13,23,7.60
2013,11,23,13,24,7.60
2013,11,23,13,25,7.60
2013,11,23,13,26,7.60
2013,11,23,13,27,7.60
2013,11,23,13,28,7.60
2013,11,23,13,29,7.60
2013,11,23,13,30,7.60
2013,11,23,13,31,7.60
2013,11,23,13,32,7.60
2013,11,23,13,33,7.60
2013,11,23,13,34,7.60
2013,11,23,13,35,7.60
2013,11,23,13,36,7.60
2013,11,23,13,37,7.60
2013,11,23,13,38,7.60
2013,11,23,13,39,7.60
2013,11,23,13,40,7.60
2013,11,23,13,41,7.60
2013,11,23,13,42,7.60
2013,11,23,13,43,7.60
2013,11,23,13,44,7.60
2013,11,23,13,45,7.70
2013,11,23,13,46,7.70
2013,11,23,13,47,7.70
2013,11,23,13,48,7.80
2013,11,23,13,49,7.80
2013,11,23,13,50,7.90
2013,11,23,13,51,7.90
2013,11,23,13,52,7.90
2013,11,23,13,53,7.90
2013,11,23,13,54,8.00
2013,11,23,13,55,8.00
2013,11,23,13,56,8.00
2013,11,23,13,57,8.10
2013,11,23,13,58,8.10
2013,11,23,13,59,8.10
2013,11,23,14,00,8.10
2013,11,23,14,01,8.10
2013,11,23,14,02,8.10
2013,11,23,14,03,8.10
2013,11,23,14,04,8.10
2013,11,23,14,05,8.10
2013,11,23,14,06,8.10
2013,11,23,14,07,8.10
2013,11,23,14,08,8.10
2013,11,23,14,09,8.20
2013,11,23,14,10,8.20
2013,11,23,14,11,8.20
2013,11,23,14,12,8.20
2013,11,23,14,13,8.20
2013,11,23,14,14,8.20
2013,11,23,14,15,8.20
2013,11,23,14,16,8.20
2013,11,23,14,17,8.20
2013,11,23,14,18,8.10
2013,11,23,14,19,8.10
2013,11,23,14,20,8.10
2013,11,23,14,21,8.00
2013,11,23,14,22,8.00
2013,11,23,14,23,7.90
2013,11,23,14,24,7.90
2013,11,23,14,25,7.90
2013,11,23,14,26,7.90
2013,11,23,14,27,7.80
2013,11,23,14,28,7.80
2013,11,23,14,29,7.80
2013,11,23,14,30,7.80
2013,11,23,14,31,7.70
2013,11,23,14,32,7.70
2013,11,23,14,33,7.60
2013,11,23,14,34,7.60
2013,11,23,14,35,7.60
2013,11,23,14,36,7.60
2013,11,23,14,37,7.50
2013,11,23,14,38,7.50
2013,11,23,14,39,7.50
2013,11,23,14,40,7.50
2013,11,23,14,41,7.40
2013,11,23,14,42,7.40
2013,11,23,14,43,7.40
2013,11,23,14,44,7.40
2013,11,23,14,45,7.40
2013,11,23,14,46,7.40
2013,11,23,14,47,7.40
2013,11,23,14,48,7.40
2013,11,23,14,49,7.40
2013,11,23,14,50,7.30
2013,11,23,14,51,7.30
2013,11,23,14,52,7.30
2013,11,23,14,53,7.30
2013,11,23,14,54,7.30
2013,11,23,14,55,7.30
2013,11,23,14,56,7.30
2013,11,23,14,57,7.30
2013,11,23,14,58,7.30
2013,11,23,14,59,7.30
2013,11,23,15,00,7.30
2013,11,23,15,01,7.30
2013,11,23,15,02,7.30
2013,11,23,15,03,7.30
2013,11,23,15,04,7.30
2013,11,23,15,05,7.20
2013,11,23,15,06,7.20
2013,11,23,15,07,7.20
2013,11,23,15,08,7.20
2013,11,23,15,09,7.20
2013,11,23,15,10,7.20
2013,11,23,15,11,7.20
2013,11,23,15,12,7.10
2013,11,23,15,13,7.10
2013,11,23,15,14,7.10
2013,11,23,15,15,7.10
2013,11,23,15,16,7.10
2013,11,23,15,17,7.10
2013,11,23,15,18,7.10
2013,11,23,15,19,7.10
2013,11,23,15,20,7.10
2013,11,23,15,21,7.10
2013,11,23,15,22,7.00
2013,11,23,15,23,7.00
2013,11,23,15,24,6.90
2013,11,23,15,25,6.90
2013,11,23,15,26,6.90
2013,11,23,15,27,6.90
2013,11,23,15,28,6.90
2013,11,23,15,29,6.80
2013,11,23,15,30,6.80
2013,11,23,15,31,6.80
2013,11,23,15,32,6.80
2013,11,23,15,33,6.80
2013,11,23,15,34,6.70
2013,11,23,15,35,6.70
2013,11,23,15,36,6.70
2013,11,23,15,37,6.70
2013,11,23,15,38,6.70
2013,11,23,15,39,6.70
2013,11,23,15,40,6.60
2013,11,23,15,41,6.60
2013,11,23,15,42,6.60
2013,11,23,15,43,6.60
2013,11,23,15,44,6.50
2013,11,23,15,45,6.50
2013,11,23,15,46,6.50
2013,11,23,15,47,6.40
2013,11,23,15,48,6.40
2013,11,23,15,49,6.40
2013,11,23,15,50,6.30
2013,11,23,15,51,6.30
2013,11,23,15,52,6.30
2013,11,23,15,53,6.30
2013,11,23,15,54,6.30
2013,11,23,15,55,6.20
2013,11,23,15,56,6.20
2013,11,23,15,57,6.20
2013,11,23,15,58,6.20
2013,11,23,15,59,6.10
2013,11,23,16,00,6.10
2013,11,23,16,01,6.10
2013,11,23,16,02,6.00
2013,11,23,16,03,6.00
2013,11,23,16,04,6.00
2013,11,23,16,05,5.90
2013,11,23,16,06,5.90
2013,11,23,16,07,5.90
2013,11,23,16,08,5.80
2013,11,23,16,09,5.80
2013,11,23,16,10,5.80
2013,11,23,16,11,5.80
2013,11,23,16,12,5.80
2013,11,23,16,13,5.70
2013,11,23,16,14,5.70
2013,11,23,16,15,5.70
2013,11,23,16,16,5.70
2013,11,23,16,17,5.70
2013,11,23,16,18,5.60
2013,11,23,16,19,5.60
2013,11,23,16,20,5.60
2013,11,23,16,21,5.60
2013,11,23,16,22,5.60
2013,11,23,16,23,5.50
2013,11,23,16,24,5.50
2013,11,23,16,25,5.50
2013,11,23,16,26,5.40
2013,11,23,16,27,5.40
2013,11,23,16,28,5.30
2013,11,23,16,29,5.30
2013,11,23,16,30,5.20
2013,11,23,16,31,5.20
2013,11,23,16,32,5.10
2013,11,23,16,33,5.10
2013,11,23,16,34,5.00
2013,11,23,16,35,5.00
2013,11,23,16,36,4.90
2013,11,23,16,37,4.90
2013,11,23,16,38,4.80
2013,11,23,16,39,4.80
2013,11,23,16,40,4.80
2013,11,23,16,41,4.70
2013,11,23,16,42,4.70
2013,11,23,16,43,4.60
2013,11,23,16,44,4.60
2013,11,23,16,45,4.50
2013,11,23,16,46,4.50
2013,11,23,16,47,4.40
2013,11,23,16,48,4.40
2013,11,23,16,49,4.30
2013,11,23,16,50,4.30
2013,11,23,16,51,4.30
2013,11,23,16,52,4.20
2013,11,23,16,53,4.20
2013,11,23,16,54,4.20
2013,11,23,16,55,4.10
2013,11,23,16,56,4.10
2013,11,23,16,57,4.10
2013,11,23,16,58,4.10
2013,11,23,16,59,4.00
2013,11,23,17,00,4.00
2013,11,23,17,01,4.00
2013,11,23,17,02,4.00
2013,11,23,17,03,3.90
2013,11,23,17,04,3.90
2013,11,23,17,05,3.90
2013,11,23,17,06,3.90
2013,11,23,17,07,3.90
2013,11,23,17,08,3.90
2013,11,23,17,09,3.80
2013,11,23,17,10,3.80
2013,11,23,17,11,3.80
2013,11,23,17,12,3.80
2013,11,23,17,13,3.80
2013,11,23,17,14,3.80
2013,11,23,17,15,3.80
2013,11,23,17,16,3.70
2013,11,23,17,17,3.70
2013,11,23,17,18,3.70
2013,11,23,17,19,3.70
2013,11,23,17,20,3.70
2013,11,23,17,21,3.70
2013,11,23,17,22,3.70
2013,11,23,17,23,3.70
2013,11,23,17,24,3.70
2013,11,23,17,25,3.70
2013,11,23,17,26,3.70
2013,11,23,17,27,3.60
2013,11,23,17,28,3.60
2013,11,23,17,29,3.60
2013,11,23,17,30,3.60
2013,11,23,17,31,3.60
2013,11,23,17,32,3.60
2013,11,23,17,33,3.50
2013,11,23,17,34,3.50
2013,11,23,17,35,3.50
2013,11,23,17,36,3.50
2013,11,23,17,37,3.50
2013,11,23,17,38,3.40
2013,11,23,17,39,3.40
2013,11,23,17,40,3.40
2013,11,23,17,41,3.40
2013,11,23,17,42,3.30
2013,11,23,17,43,3.30
2013,11,23,17,44,3.30
2013,11,23,17,45,3.30
2013,11,23,17,46,3.30
2013,11,23,17,47,3.30
2013,11,23,17,48,3.20
2013,11,23,17,49,3.20
2013,11,23,17,50,3.20
2013,11,23,17,51,3.20
2013,11,23,17,52,3.20
2013,11,23,17,53,3.20
2013,11,23,17,54,3.20
2013,11,23,17,55,3.10
2013,11,23,17,56,3.10
2013,11,23,17,57,3.10
2013,11,23,17,58,3.10
2013,11,23,17,59,3.10
2013,11,23,18,00,3.00
2013,11,23,18,01,3.00
2013,11,23,18,02,2.90
2013,11,23,18,03,2.90
2013,11,23,18,04,2.90
2013,11,23,18,05,2.80
2013,11,23,18,06,2.80